Date,TemperatureHighF,TemperatureAvgF,TemperatureLowF,DewpointHighF,DewpointAvgF,DewpointLowF,HumidityHigh,HumidityAvg,HumidityLow,PressureMaxIn,PressureMinIn,WindSpeedMaxMPH,WindSpeedAvgMPH,GustSpeedMaxMPH,PrecipitationSumIn
2014-1-12,67.0,61.2,54.0,-99.9,-99.9,-99.9,0,0,100,29.94,29.85,4,1,8,0.00
2014-1-13,65.0,55.6,52.0,-99.9,-99.9,-99.9,0,0,100,29.92,29.86,7,1,11,0.00
2014-1-14,67.0,64.6,63.0,-99.9,-99.9,-99.9,0,0,100,29.75,29.67,8,3,9,0.00
2014-1-15,62.0,58.8,55.0,-99.9,-99.9,-99.9,0,0,100,29.80,29.69,5,1,8,0.00
2014-1-16,59.0,56.0,49.0,-99.9,-99.9,-99.9,0,0,100,29.90,29.68,7,2,7,0.00
2014-1-17,61.0,57.6,53.0,-99.9,-99.9,-99.9,0,0,100,29.97,29.87,0,0,0,0.00
2014-1-18,60.0,56.7,52.0,-99.9,-99.9,-99.9,0,0,100,29.99,29.91,4,1,8,0.00
2014-1-19,64.0,60.1,57.0,-99.9,-99.9,-99.9,0,0,100,29.99,29.87,8,1,13,0.00
2014-1-20,65.0,60.6,52.0,-99.9,-99.9,-99.9,0,0,100,29.89,29.78,7,1,11,0.00
2014-1-21,68.0,60.5,57.0,-99.9,-99.9,-99.9,0,0,100,29.80,29.58,10,1,11,0.00
2014-1-22,60.0,57.9,53.0,-99.9,-99.9,-99.9,0,0,100,29.86,29.65,9,4,9,0.00
2014-1-23,61.0,57.1,53.0,-99.9,-99.9,-99.9,0,0,100,30.07,29.98,2,1,7,0.00
2014-1-24,60.0,54.1,49.0,-99.9,-99.9,-99.9,0,0,100,30.19,30.02,8,2,13,0.00
2014-1-25,66.0,57.5,50.0,-99.9,-99.9,-99.9,0,0,100,29.99,29.78,7,1,12,0.00
2014-1-26,65.0,60.8,57.0,-99.9,-99.9,-99.9,0,0,100,29.82,29.73,10,0,10,0.00
2014-1-27,73.0,64.1,60.0,-99.9,-99.9,-99.9,0,0,100,29.77,29.70,9,2,10,0.00
2014-1-28,60.0,59.1,59.0,-99.9,-99.9,-99.9,0,0,100,29.75,29.73,0,0,0,0.00
2014-1-29,65.0,58.1,51.0,-99.9,-99.9,-99.9,0,0,100,29.91,29.72,6,2,7,0.07
2014-1-30,55.0,53.3,51.0,-99.9,-99.9,-99.9,0,0,100,29.91,29.81,4,1,9,0.22
2014-1-31,66.0,59.7,55.0,-99.9,-99.9,-99.9,0,0,100,29.86,29.77,3,0,5,0.40